Home   Weather   L'viv   Past weeks

Flag for Ukraine Past Weather in L'viv, Ukraine — Yesterday and Last 2 Weeks

Now
18 °F

Ice fog.


Feels Like: 9 °F
Forecast: 20 / 35 °F
Wind: 6 mph from Southwest

Location: L'Viv Airport

Current Time: Dec 7, 2016 at 10:39:10 pm

Latest Report: Dec 7, 2016 at 10:00 pm


Visibility: 2 mi

Pressure: 30.54 "Hg

Humidity: 93%

Dew Point: 16 °F

Location of L'vivLocation

Past Weather in L'viv — Graph

°F

L'viv Temperature Yesterday

Maximum temperature yesterday: 30 °F (at 2:30 pm)
Minimum temperature yesterday: 19 °F (at 3:00 am)
Average temperature yesterday: 27 °F

High & Low Weather Summary for the Past Weeks

 TemperatureHumidityPressure
High45 °F (Nov 24, 2:00 pm)100% (Nov 23, 4:00 am)30.63 "Hg (Nov 23, 4:00 am)
Low10 °F (Nov 30, 1:30 am)56% (Nov 30, 4:00 pm)29.24 "Hg (Dec 2, 7:00 am)
Average31 °F88%30.10 "Hg
* Reported Nov 22 9:00 pm — Dec 7 9:30 pm, L'viv, Weather by CustomWeather, © 2016

Note: Actual official high and low records may vary slightly from our data, if they occured in-between our weather recording intervals... More about our weather records

Advertising

L'viv Weather History for the Previous 24 Hours

Scroll right to see more
 ConditionsComfort  
Time TempWeatherWind HumidityBarometerVisibility
9:30 pm
Wed, Dec 7
16 °FIce fog.1 mph93%30.54 "Hg1 mi
9:00 pm12 °FIce fog.3 mph85%30.57 "Hg0 mi
8:30 pm16 °FIce fog.1 mph86%30.57 "Hg0 mi
8:00 pm14 °FIce fog.1 mph92%30.57 "Hg0 mi
7:30 pm16 °FIce fog.3 mph93%30.57 "Hg0 mi
7:00 pm18 °FIce fog.1 mph93%30.60 "Hg0 mi
6:30 pm14 °FIce fog.3 mph92%30.60 "Hg0 mi
6:00 pm16 °FIce fog.3 mph93%30.60 "Hg0 mi
5:30 pm18 °FIce fog.1 mph93%30.60 "Hg0 mi
5:00 pm21 °FIce fog.1 mph93%30.60 "Hg2 mi
4:30 pm23 °FClear.3 mph93%30.60 "Hg4 mi
4:00 pm27 °FPartly sunny.3 mph86%30.60 "HgN/A
3:30 pm28 °FPartly sunny.6 mph86%30.60 "HgN/A
3:00 pm28 °FPartly sunny.6 mph80%30.60 "HgN/A
2:30 pm28 °FPartly sunny.6 mph80%30.60 "HgN/A
2:00 pm28 °FPartly sunny.3 mph86%30.60 "Hg5 mi
1:30 pm27 °FPartly sunny.3 mph93%30.60 "Hg4 mi
1:00 pm27 °FIce fog.6 mph93%30.63 "Hg1 mi
12:30 pm27 °FIce fog.6 mph93%30.63 "Hg2 mi
12:00 pm28 °FBroken clouds.1 mph80%30.60 "HgN/A
11:30 am28 °FBroken clouds.1 mph86%30.60 "HgN/A
11:00 am28 °FBroken clouds.No wind86%30.63 "HgN/A
10:30 am28 °FBroken clouds.No wind86%30.60 "HgN/A
10:00 am28 °FLow clouds.3 mph86%30.60 "HgN/A
9:30 am28 °FOvercast.1 mph86%30.60 "HgN/A
9:00 am27 °FOvercast.1 mph93%30.60 "HgN/A
8:30 am27 °FPartly sunny.No wind93%30.57 "HgN/A
8:00 am28 °FPassing clouds.1 mph86%30.57 "HgN/A
7:30 am27 °FPassing clouds.3 mph93%30.54 "HgN/A
7:00 am28 °FPassing clouds.3 mph86%30.54 "HgN/A
6:30 am28 °FPassing clouds.3 mph86%30.54 "HgN/A
6:00 am28 °FPassing clouds.3 mph86%30.51 "HgN/A
5:30 am28 °FPassing clouds.3 mph86%30.51 "HgN/A
5:00 am28 °FPassing clouds.3 mph86%30.48 "HgN/A
4:30 am28 °FPassing clouds.6 mph86%30.48 "HgN/A
4:00 am28 °FPassing clouds.6 mph86%30.45 "HgN/A
3:30 am30 °FPassing clouds.6 mph80%30.45 "HgN/A
3:00 am30 °FPassing clouds.8 mph86%30.45 "HgN/A
2:30 am30 °FPassing clouds.8 mph93%30.42 "Hg4 mi
2:00 am30 °FPassing clouds.8 mph93%30.42 "Hg6 mi
1:30 am30 °FLow clouds.8 mph93%30.39 "Hg4 mi
1:00 am30 °FLight snow. Ice fog.6 mph93%30.39 "Hg3 mi
12:30 am30 °FLight snow. Ice fog.6 mph93%30.39 "Hg2 mi
12:00 am30 °FSnow. Ice fog.6 mph93%30.39 "Hg1 mi
11:52 pm
Tue, Dec 6
30 °FLight snow. Ice fog.6 mph93%30.39 "Hg1 mi
11:30 pm30 °FLight snow. Ice fog.3 mph93%30.36 "Hg2 mi
11:00 pm30 °FLow clouds.6 mph93%30.36 "Hg4 mi
10:30 pm30 °FIce fog.6 mph93%30.36 "Hg3 mi
10:00 pm28 °FPassing clouds.6 mph93%30.33 "Hg4 mi
Weather by CustomWeather, © 2016

See weather overviewHow to use our weather pages